niederrhein-spotter.de
Homepage News Airport Weeze Airportfestival Planespotting Fotos Forum Sonstiges
 
Planespotting
· Fotopositionen
· Flugkarten
· Flugwetter
· Funkfrequenzen
 
Flugwetter
Roh-METAR
EDLV 030650Z 06004KT 010V110 6000 NSC 15/14 Q1024

bersetzung